Regional Weather Roundup
Issued by NWS

Home | Current Version | Previous Version | Text Only | Print | Product List | Glossary Off
Versions: 1 2 3 4 5 6 7 8 9 10 11 12 13 14 15 16 17 18 19 20 21 22 23 24 25 26 27 28 29 30 31 32 33 34 35 36 37 38 39 40 41 42 43 44 45 46 47 48 49 50

000
ASUS43 KLSX 291610
RWRMO

WEATHER SUMMARY FOR MISSOURI
NATIONAL WEATHER SERVICE SPRINGFIELD MO
1100 AM CDT FRI APR 29 2016

NOTE: "FAIR" INDICATES FEW OR NO CLOUDS BELOW 12,000 FEET WITH NO
       SIGNIFICANT WEATHER AND/OR OBSTRUCTIONS TO VISIBILITY.
       CURRENT SKY AND/OR WEATHER CONDITIONS ARE NOT AVAILABLE FOR
       CHILLICOTHE AND FARMINGTON.

MOZ001>031-035>038-043-044-053-054-291700-
...NORTHERN AND WESTERN MISSOURI...

CITY           SKY/WX    TMP DP  RH WIND       PRES   REMARKS
KANSAS CTY INT CLOUDY    52  44  74 E13       30.03F
KANSAS C DTWN  CLOUDY    54  44  69 NE13      30.01F
LEE`S SUMMIT   CLOUDY    53  45  74 NE15      30.03R
ST JOSEPH      CLOUDY    51  43  74 NE9       30.06F
CHILLICOTHE      N/A     53  46  77 VRB6      30.09R
KIRKSVILLE     CLOUDY    53  45  74 NE9       30.06F

$$
MOZ066>068-077>081-088>096-101>105-291700-
...SOUTHWEST MISSOURI...

CITY           SKY/WX    TMP DP  RH WIND       PRES   REMARKS
SPRINGFIELD    LGT RAIN  54  50  86 E9        29.97F
JOPLIN         PTSUNNY   58  53  84 E18G28    29.85F
BRANSON        LGT RAIN  52  52 100 E25G31    29.90F

$$
MOZ032>034-039>042-045>050-055>058-069>072-291700-
...CENTRAL MISSOURI...

CITY           SKY/WX    TMP DP  RH WIND       PRES   REMARKS
COLUMBIA       CLOUDY    56  49  77 NE7       30.06R
JEFFERSON CITY CLOUDY    56  48  74 E9        30.05S
ROLLA          CLOUDY    53  49  86 SE3       30.05R
SEDALIA        CLOUDY    56  48  74 E12       30.04S
WHITEMAN AFB   PTSUNNY   57  50  78 NE14      30.01S
WARRENSBURG    CLOUDY    54  46  76 NE10G16   30.03R
OSAGE BEACH    CLOUDY    54  43  66 E7        30.03F

$$
MOZ051-052-059>065-291700-
...EAST CENTRAL MISSOURI...

CITY           SKY/WX    TMP DP  RH WIND       PRES   REMARKS
ST LOUIS INTL  CLOUDY    60  48  64 SE6       30.07R
SPIRIT OF STL  CLOUDY    60  50  69 S5        30.07R
ST CHARLES     CLOUDY    60  51  72 E8        30.05R

$$
MOZ072>076-082>087-097>100-106>115-291700-
...SOUTH CENTRAL AND SOUTHEAST MISSOURI...

CITY           SKY/WX    TMP DP  RH WIND       PRES   REMARKS
CAPE GIRARDEAU CLOUDY    62  51  67 E8        30.05R
FARMINGTON     CLOUDY    56  51  84 E3        30.07R
POPLAR BLUFF   LGT RAIN  59  52  77 NE5       30.04R
WEST PLAINS    LGT RAIN  53  48  83 CALM      30.06R

$$



USA.gov is the U.S. government's official web portal to all federal, state and local government web resources and services.